SCP
0 0 0 0 0 0 0 0 0 0 0 0 0 0 0 0 0 0 0 0 0 0 0 0 0 0 0 0 0 0 0 0 0 0 0 0 0 0 0 0 0 0 0
0 0 0 0 0 0 0 0 0 0 0 0 0 0 0 0 0 0 0 0 0 0 0 0 0 0 0 0 0 0 0 0 0 0 0 0 0 0 0 0 0 0 0
0 0 0 0 0 0 0 0 0 0 0 0 0 0 0 0 0 0 0 0 0 0 0 0 0 0 0 0 0 0 0 0 0 0 0 0 0 0 0 0 0 0 0
0 0 0 0 0 0 0 0 0 0 0 0 0 0 0 0 0 0 0 0 0 0 0 0 0 0 0 0 0 0 0 0 0 0 0 0 0 0 0 0 0 0 0
0 0 0 0 0 0 0 0 0 0 0 0 0 0 0 0 0 0 0 0 0 0 0 0 0 0 0 0 0 0 0 0 0 0 0 0 0 0 0 0 0 0 0
0 0 0 0 0 0 0 0 0 0 0 0 0 0 0 0 0 0 0 0 0 0 0 0 0 0 0 0 0 0 0 0 0 0 0 0 0 0 0 0 0 0 0
0 0 0 0 0 0 0 0 0 0 0 0 0 0 0 0 0 0 0 0 0 0 0 0 0 0 0 0 0 0 0 0 0 0 0 0 0 0 0 0 0 0 0
0 0 0 0 0 0 0 0 0 0 0 0 0 0 0 0 0 0 0 0 0 0 0 0 0 0 0 0 0 0 0 0 0 0 0 0 0 0 0 0 0 0 0
0 0 0 0 0 0 0 0 0 0 0 0 0 0 0 0 0 0 0 0 0 0 0 0 0 0 0 0 0 0 0 0 0 0 0 0 0 0 0 0 0 0 0
0 0 0 0 0 0 0 0 0 0 0 0 0 0 0 0 0 0 0 0 0 0 0 0 0 0 0 0 0 0 0 0 0 0 0 0 0 0 0 0 0 0 0
0 0 0 0 0 0 0 0 0 0 0 0 0 0 0 0 0 0 0 0 0 0 0 0 0 0 0 0 0 0 0 0 0 0 0 0 0 0 0 0 0 0 0
0 0 0 0 0 0 0 0 0 0 0 0 0 0 0 0 0 0 0 0 0 0 0 0 0 0 0 0 0 0 0 0 0 0 0 0 0 0 0 0 0 0 0
0 0 0 0 0 0 0 0 0 0 0 0 0 0 0 0 0 0 0 0 0 0 0 0 0 0 0 0 0 0 0 0 0 0 0 0 0 0 0 0 0 0 0
0 0 0 0 0 0 0 0 0 0 0 0 0 0 0 0 0 0 0 0 0 0 0 0 0 0 0 0 0 0 0 0 0 0 0 0 0 0 0 0 0 0 0
0 0 0 0 0 0 0 0 0 0 0 0 0 0 0 0 0 0 0 0 0 0 0 0 0 0 0 0 0 0 0 0 0 0 0 0 0 0 0 0 0 0 0
0 0 0 0 0 0 0 0 0 0 0 0 0 0 0 0 0 0 0 0 0 0 0 0 0 0 0 0 0 0 0 0 0 0 0 0 0 0 0 0 0 0 0
0 0 0 0 0 0 0 0 0 0 0 0 0 0 0 0 0 0 0 0 0 0 0 0 0 0 0 0 0 0 0 0 0 0 0 0 0 0 0 0 0 0 0
0 0 0 0 0 0 0 0 0 0 0 0 0 0 0 0 0 0 0 0 0 0 0 0 0 0 0 0 0 0 0 0 0 0 0 0 0 0 0 0 0 0 0
0 0 0 0 0 0 0 0 0 0 0 0 0 0 0 0 0 0 0 0 0 0 0 0 0 0 0 0 0 0 0 0 0 0 0 0 0 0 0 0 0 0 0
0 0 0 0 0 0 0 0 0 0 0 0 0 0 0 0 0 0 0 0 0 0 0 0 0 0 0 0 0 0 0 0 0 0 0 0 0 0 0 0 0 0 0
0 0 0 0 0 0 0 0 0 0 0 0 0 0 0 0 0 0 0 0 0 0 0 0 0 0 0 0 0 0 0 0 0 0 0 0 0 0 0 0 0 0 0
0 0 0 0 0 0 0 0 0 0 0 0 0 0 0 0 0 0 0 0 0 0 0 0 0 0 0 0 0 0 0 0 0 0 0 0 0 0 0 0 0 0 0
0 0 0 0 0 0 0 0 0 0 0 0 0 0 0 0 0 0 0 0 0 0 0 0 0 0 0 0 0 0 0 0 0 0 0 0 0 0 0 0 0 0 0
0 0 0 0 0 0 0 0 0 0 0 0 0 0 0 0 0 0 0 0 0 0 0 0 0 0 0 0 0 0 0 0 0 0 0 0 0 0 0 0 0 0 0
-0 -0 0 0 0 0 0 0 0 0 0 0 0 0 0 0 0 0 0 0 0 0 0 0 0 0 0 0 0 0 0 0 0 0 0 0 0 0 0 0 0 0 0
-0 -0 -0 0 0 0 0 0 0 0 0 0 0 0 0 0 0 0 0 0 0 0 0 0 0 0 0 0 0 0 0 0 0 0 0 0 0 0 0 0 0 0 0
Wind_Speed
5 4 4 3 3 4 4 4 4 4 4 4 5 4 5 5 4 4 3 3 4 3 2 3 2 2 2 1 2 2 2 3 4 1 3 3 5 5 4 4 5 4 5
4 4 4 3 3 3 3 4 4 4 4 4 4 4 4 4 4 4 4 3 3 3 2 3 2 2 3 2 2 3 3 3 5 4 3 3 5 4 4 5 4 4 4
4 4 3 3 3 3 3 3 4 4 3 3 4 4 4 4 4 4 4 4 3 3 3 4 3 4 4 3 4 4 3 4 4 6 4 3 3 3 4 5 6 4 5
5 4 3 3 3 3 3 3 3 4 4 4 4 4 4 4 5 5 5 6 5 5 5 5 4 5 5 5 5 4 5 6 6 6 5 4 3 3 4 4 4 4 4
5 5 4 4 4 3 3 3 4 4 4 4 4 4 4 4 4 6 6 7 7 7 7 6 7 10 10 7 6 5 6 6 6 6 5 4 4 3 3 2 3 3 4
5 5 4 5 5 4 4 4 5 5 5 5 5 5 5 4 6 9 9 8 8 8 8 7 8 10 14 15 15 13 10 8 7 6 4 5 3 2 2 3 3 3 3
6 5 5 5 5 5 5 5 5 5 5 6 5 6 6 6 9 11 12 9 8 7 7 7 7 8 9 9 15 17 16 15 11 7 7 5 3 2 3 4 4 4 2
6 6 6 6 6 6 6 5 5 5 5 5 6 6 7 8 11 13 14 10 9 8 7 7 8 7 8 10 11 11 10 9 9 8 7 5 4 3 3 3 3 4 3
5 5 5 6 7 6 6 5 5 6 6 6 6 7 8 8 10 12 12 9 9 9 7 7 8 8 12 14 12 11 10 8 11 13 11 10 10 9 6 4 4 4 3
5 5 5 6 7 7 6 6 6 7 7 7 7 7 7 7 9 11 11 8 9 8 7 8 10 10 10 11 9 9 10 6 6 7 8 8 7 8 9 5 3 3 2
5 5 5 5 6 7 7 6 7 8 8 8 8 7 7 8 9 10 10 7 8 8 7 6 6 11 11 10 8 7 8 7 6 6 6 5 5 5 5 4 3 3 3
6 6 5 5 6 6 8 7 8 8 9 8 8 7 6 6 8 10 12 11 9 9 7 5 7 12 12 11 8 9 11 9 6 6 5 4 4 4 3 4 4 4 2
7 6 5 6 6 6 7 8 7 7 7 6 6 7 6 5 7 12 13 14 13 8 7 10 11 13 11 9 11 11 8 6 5 5 4 3 2 2 3 4 5 5 5
7 6 6 6 7 6 5 5 6 6 7 7 7 7 6 5 5 5 7 8 11 9 8 10 12 12 9 8 8 6 4 4 5 4 3 2 2 3 3 3 3 3 4
7 7 6 7 7 7 6 5 4 4 5 7 6 7 8 7 5 8 8 6 5 6 7 5 5 4 5 5 4 4 4 4 4 3 3 3 3 3 3 2 2 3 3
8 7 6 6 6 7 8 8 13 10 11 11 10 9 7 9 11 11 10 10 10 10 8 6 5 4 5 4 4 3 3 3 3 3 3 3 2 2 2 2 2 2 2
8 7 6 6 6 6 6 8 8 9 13 12 11 12 11 12 12 12 11 11 10 10 6 5 4 4 4 3 3 3 2 2 2 3 3 2 2 2 2 2 2 2 2
8 9 8 6 6 6 6 6 7 8 7 5 7 10 11 11 11 11 12 9 6 4 4 4 4 4 4 4 3 3 2 2 2 2 2 2 2 2 1 1 1 1 1
7 6 6 6 6 6 6 6 6 7 7 6 5 5 7 9 9 9 8 5 4 3 3 3 4 4 4 3 3 3 3 3 2 2 2 1 1 1 1 1 1 2 1
6 11 9 7 7 6 6 6 6 6 6 6 5 4 4 4 4 4 3 3 3 3 3 4 3 4 4 3 3 3 3 3 2 2 1 1 1 1 0 1 1 1 2
6 8 11 8 6 6 6 6 6 6 6 5 4 5 7 4 4 4 4 3 3 3 4 4 4 4 4 3 3 4 4 3 2 2 1 1 0 0 1 1 1 1 2
5 5 5 6 6 6 6 6 6 6 6 6 4 4 7 4 3 3 3 3 3 3 4 4 4 4 4 5 5 4 4 3 3 2 2 1 1 0 0 1 1 2 2
5 6 5 5 5 7 7 5 5 5 5 5 5 4 4 4 3 3 3 3 3 3 4 4 4 4 3 4 4 5 5 5 4 4 3 2 1 1 1 1 2 2 3
5 5 5 5 5 5 5 5 5 6 6 6 5 5 4 4 4 4 4 4 3 3 3 4 5 6 7 5 3 4 4 5 4 4 4 3 2 2 1 2 3 3 3
4 4 5 5 5 5 5 5 6 6 6 6 5 5 4 4 4 4 4 4 5 4 5 5 4 6 8 8 6 5 6 7 6 4 3 3 2 2 2 3 3 3 4
4 5 4 4 4 5 5 5 5 6 6 6 5 5 5 5 5 4 4 4 4 5 5 5 6 8 8 7 8 9 8 7 7 6 4 3 3 3 3 3 4 4 5
Wind_Direction
163 165 162 164 168 164 167 177 180 179 175 179 186 184 180 175 165 162 167 159 166 184 180 160 169 144 123 107 107 112 120 128 133 92 50 49 59 74 70 73 75 72 78
147 142 145 143 143 152 163 172 168 168 169 169 163 159 162 155 156 157 163 162 158 162 160 136 134 123 105 102 99 94 103 115 127 122 78 51 59 76 79 76 72 79 82
135 131 135 135 137 144 154 156 152 154 152 146 145 152 149 145 139 139 141 133 126 130 131 121 114 110 97 90 91 90 91 94 100 114 100 60 56 57 66 68 61 47 70
140 136 142 146 144 144 141 141 142 143 142 137 134 137 132 128 130 130 124 118 109 97 97 101 101 104 107 101 91 93 99 96 94 100 95 71 55 36 56 61 52 37 46
136 137 146 140 133 125 121 117 113 116 121 118 117 118 119 126 135 132 124 117 109 97 86 83 86 90 91 93 97 98 102 100 97 97 93 80 62 56 56 49 63 53 44
133 136 131 122 119 115 109 103 98 96 98 99 102 108 106 110 121 126 124 116 112 108 99 87 81 80 84 83 85 86 94 107 112 106 97 95 81 62 56 70 73 61 39
132 132 130 125 118 113 113 104 102 97 94 93 92 94 95 99 111 115 115 114 111 109 107 102 94 88 86 89 81 76 73 79 94 110 105 99 94 79 85 74 67 72 65
131 134 133 127 123 117 112 110 105 100 98 95 93 95 94 95 105 108 107 101 98 95 96 102 105 99 97 100 94 83 74 69 79 85 98 96 94 93 99 115 111 92 56
128 136 138 137 133 128 124 121 114 108 99 94 96 97 97 94 101 108 110 106 99 91 86 88 98 99 102 103 101 97 89 77 77 84 85 83 79 74 79 78 68 77 53
131 133 133 135 133 130 128 121 112 106 103 100 92 90 97 96 98 108 113 113 109 102 89 83 85 94 100 102 106 109 104 96 89 77 67 59 57 55 57 74 102 99 87
124 116 115 123 127 128 123 116 113 109 104 98 92 84 85 92 96 97 105 113 118 112 103 92 86 91 91 93 99 105 113 112 99 91 80 63 50 43 36 41 69 105 105
117 112 110 115 122 125 122 118 117 117 111 106 100 91 78 82 91 95 95 100 109 110 108 103 98 93 88 88 89 92 95 94 88 83 76 62 51 39 27 30 44 60 88
120 119 116 113 110 117 124 127 124 122 120 119 115 108 97 88 89 92 95 98 99 100 104 108 101 93 87 82 82 86 87 88 90 88 83 70 56 47 40 34 24 32 33
126 124 120 117 110 103 104 115 125 131 132 129 127 123 118 110 108 106 104 102 100 100 101 97 91 87 85 86 80 74 73 90 103 102 96 70 50 47 43 42 39 23 30
124 122 118 115 113 103 88 77 98 96 133 137 138 137 137 133 133 127 124 119 120 120 114 97 89 87 82 77 71 68 70 76 80 79 79 69 57 52 34 29 47 43 42
130 126 123 121 117 114 109 87 63 78 88 97 110 120 113 122 126 121 118 119 119 121 111 111 110 106 106 106 100 87 76 81 85 87 81 79 76 67 42 27 41 49 34
129 127 121 121 122 122 120 119 108 77 72 82 98 109 116 123 122 121 119 116 116 114 106 116 122 124 122 121 118 112 103 98 97 94 93 88 82 68 57 37 27 25 2
118 121 122 123 122 120 118 118 119 122 114 89 82 102 114 120 121 121 121 111 101 94 113 127 132 134 133 131 131 125 116 103 93 94 92 87 83 78 61 32 13 0 332
117 121 121 121 119 118 118 116 115 117 119 119 111 103 112 113 110 117 121 116 129 130 134 138 142 142 140 139 139 134 129 127 123 112 101 95 90 84 58 353 331 339 349
117 127 127 125 123 123 123 124 126 128 129 132 138 143 137 123 127 136 134 135 139 145 150 150 153 150 148 148 144 136 128 129 129 123 128 125 113 111 138 294 307 315 304
123 130 131 127 128 131 132 134 135 137 140 143 152 163 157 146 152 158 159 162 165 164 160 158 157 156 155 153 148 145 142 149 155 155 155 161 148 151 272 272 288 294 299
125 128 133 133 132 132 134 136 139 142 147 147 148 154 159 140 147 165 175 177 175 172 167 159 161 167 168 164 161 156 155 163 173 172 174 184 198 254 294 305 306 302 303
129 130 130 131 133 138 138 140 145 148 150 152 155 156 159 165 172 180 187 180 171 173 169 160 160 169 173 170 167 163 169 182 188 179 173 183 207 233 244 269 284 296 297
132 135 138 138 137 142 147 152 156 159 159 159 163 169 175 180 186 192 193 187 176 176 174 169 171 176 174 172 174 177 181 184 178 176 176 182 203 230 248 270 281 286 287
142 143 147 151 153 154 156 156 159 162 166 169 173 178 182 184 187 191 189 183 178 181 185 179 176 176 178 178 179 185 187 186 186 180 175 179 204 228 248 265 273 282 283
151 153 155 154 155 155 155 156 160 165 170 176 179 183 184 186 187 187 185 182 183 187 188 187 186 184 184 187 191 191 192 195 197 194 181 186 209 237 250 260 275 278 283